Regional Weather Roundup
Issued by NWS

Home | Current Version | Previous Version | Text Only | Print | Product List | Glossary On
Versions: 1 2 3 4 5 6 7 8 9 10 11 12 13 14 15 16 17 18 19 20 21 22 23 24 25 26 27 28 29 30 31 32 33 34 35 36 37 38 39 40 41 42 43 44 45 46 47 48 49 50
000
ASCA44 KEWX 281320
RWRMX

LATIN AMERICA AND CARIBBEAN REGIONAL WEATHER ROUNDUP
NATIONAL WEATHER SERVICE AUSTIN/SAN ANTONIO TX
800 AM CDT FRI JUL 28 2017

NOTE: "FAIR" INDICATED FEW OR NO CLOUDS BELOW 12,000 FEET WITH NO
SIGNIFICANT WEATHER AND/OR OBSTRUCTIONS TO VISIBILITY.

BAJA CALIFORNIA

CITY           SKY/WX    TMP DP  RH WIND       PRES   REMARKS
LORETO         MOCLDY    81  70  69 CALM      29.89
MEXICALI       PTCLDY    86  72  62 SE23      29.81  HX  92
S.J. DEL CABO  PTCLDY    79  72  78 NW5       29.93
TIJUANA        CLOUDY    66  61  82 CALM      29.93

NORTHWESTERN MEXICO

CITY           SKY/WX    TMP DP  RH WIND       PRES   REMARKS
CULIACAN       CLOUDY    77  75  94 N3        29.92
DURANGO        PTCLDY    55  55 100 CALM      30.29
HERMOSILLO     CLOUDY    77  75  94 CALM      29.96
LOS MOCHIS     LGT RAIN  75  68  78 SW15      29.93
OBREGON        MOCLDY    75  72  88 NW5       29.90

NORTHEASTERN MEXICO

CITY           SKY/WX    TMP DP  RH WIND       PRES   REMARKS
MONCLOVA       MOSUNNY   79  50  36 CALM      29.99
MONTERREY      MOSUNNY   75  68  78 E3        29.96R
REYNOSA        SUNNY     73  70  88 SE7       29.94
SALTILLO         N/A    N/A N/A N/A MISG        N/A
TORREON        MOCLDY    77  63  61 SE3       30.11
CD. VICTORIA   SUNNY     75  68  78 S12       29.96

WESTERN MEXICO

CITY           SKY/WX    TMP DP  RH WIND       PRES   REMARKS
AGUASCALIENTES MOCLDY    59  57  94 NE6       30.32
COLIMA         MOCLDY    73  66  78 CALM      30.05R
DEL BAJIO      PTCLDY    59  55  88 N5        30.35R
GUADALAJARA    MOCLDY    59  57  94 CALM      30.23  FOG
MANZANILLO     PTCLDY    77  73  88 CALM      29.86
MAZATLAN       MOCLDY    77  75  94 NE3       29.92R
P. VALLARTA    MOCLDY    77  77 100 CALM      29.91R
URUAPAN        CLOUDY    63  61  94 CALM      30.22R
ZACATECAS      MOCLDY    57  50  77 S7        30.34

CENTRAL MEXICO

CITY           SKY/WX    TMP DP  RH WIND       PRES   REMARKS
CUERNAVACA     PTCLDY    64  54  68 N2        30.18S
MEXICO CITY    MOSUNNY   57  50  77 SE3       30.38R
MORELIA        MOCLDY    59  59 100 CALM      30.29
POZA RICA      SUNNY     75  75 100 CALM      30.01R FOG
QUERETARO      PTCLDY    57  55  94 CALM      30.36R
S. LUIS POTOSI FOG       54  54 100 CALM      30.32S VSB 1/4
TAMPICO        MOSUNNY   79  77  94 CALM      29.98R
TOLUCA         PTCLDY    46  45  93 E3        30.42

SOUTHERN MEXICO

CITY           SKY/WX    TMP DP  RH WIND       PRES   REMARKS
ACAPULCO       PTCLDY    79  72  78 NW5       29.86R
B. DE HUATULCO MOSUNNY  N/A N/A N/A CALM      29.91
OAXACA         SUNNY     59  52  77 N8        30.27R
P. ESCONDIDO   MOSUNNY   75  70  83 E9        29.97R
VERACRUZ       SUNNY     72  72 100 W3        29.96R
ZIHUATANEJO    MOCLDY    75  73  94 NE3       29.88

YUCATAN PENINSULA

CITY           SKY/WX    TMP DP  RH WIND       PRES   REMARKS
CAMPECHE       MOSUNNY   77  73  88 CALM      29.92R
CANCUN         SUNNY     79  79 100 NW2       29.95R
CHETUMAL       MOSUNNY   77  75  94 CALM      29.94
CD. DEL CARMEN MOSUNNY  N/A N/A N/A S2        29.94
COZUMEL        MOSUNNY   82  81  94 CALM      29.93R HX  95
MERIDA         PTSUNNY   79  73  83 CALM      29.96R
MINATITLAN     DRIZZLE   75  70  83 CALM      29.94  HAZE
TAPACHULA      PTSUNNY   73  72  94 NE2       29.86R
TUX. GUTIERREZ MOSUNNY   68  68 100 CALM      29.99R FOG
VILLAHERMOSA   MOSUNNY   73  72  94 CALM      29.97

CENTRAL AMERICA

CITY           SKY/WX    TMP DP  RH WIND       PRES   REMARKS
BELIZE CITY    MOSUNNY   79  79 100 W3        29.93R
MANAGUA        MOSUNNY   81  72  74 E5        29.86S

CARIBBEAN

CITY           SKY/WX    TMP DP  RH WIND       PRES   REMARKS
ARUBA          MOSUNNY   86  77  74 E21       29.86S HX  97
CURACAO        MOSUNNY   86  77  74 E13       29.92S HX  97
KINGSTON       MOSUNNY   84  73  70 N5        29.92S HX  91
NASSAU         PTSUNNY   88  77  70 E5        30.00R HX 100
SAN JUAN       MOSUNNY   84  77  79 E6        30.00R HX  94
SANTO DOMINGO  MOSUNNY   84  77  79 NE7       29.94S HX  94
ST. CROIX      MOSUNNY   88  77  70 E10       30.00  HX 100
ST. KITTS      MOSUNNY   86  77  74 E9        30.00S HX  97
ST. MAARTEN    MOSUNNY   86  79  79 SE10      30.00R HX  99
ST. THOMAS     SUNNY     86  75  70 SE13      29.99  HX  95

$$




USA.gov is the U.S. government's official web portal to all federal, state and local government web resources and services.